Tracking 19909 objects as of 22-Oct-2019
HD Live streaming from Space Station
objects crossing your sky now

IRIDIUM 33 DEB

Track IRIDIUM 33 DEB now!
10-day predictions


NORAD ID: 35081
Int'l Code: 1997-051PG
Perigee: 459.6 km
Apogee: 534.1 km
Inclination: 86.4 °
Period: 94.4 minutes
Semi major axis: 6867 km
RCS: 0.002 m2 (small)
Launch date: September 14, 1997
Source: United States (US)
Launch site: TYURATAM MISSILE AND SPACE COMPLEX (TTMTR)

Note: This is SATELLITE DEBRIS
aabbcc
Your satellite tracking list
Your tracking list is empty




NASA's NSSDC Master Catalog

Two Line Element Set (TLE):
1 35081U 97051PG  15168.43824283 +.00000045 +00000-0 +00000-0 0  9993
2 35081 086.4211 218.9276 0054232 235.2452 124.3683 15.25347491329647
Source of the keplerian elements: AFSPC